, NM

(GMT )
Holloman AFB

Weather History for KHMN - November, 2012

Change the Weather History Date:

Saturday, November 3, 2012

  Actual Average Record
Temperature  
Mean Temperature 59 °F -  
Max Temperature 76 °F 65 °F 79 °F (2008)
Min Temperature 43 °F 37 °F 27 °F (2011)
Degree Days  
Heating Degree Days 6    
Growing Degree Days 9 (Base 50)    
Moisture  
Dew Point 22 °F    
Average Humidity 26    
Maximum Humidity 39    
Minimum Humidity 16    
Precipitation  
Precipitation 0.00 in - - ()
Sea Level Pressure  
Sea Level Pressure 29.94 in    
Wind  
Wind Speed 2 mph (NNE)    
Max Wind Speed 9 mph    
Max Gust Speed -    
Visibility 10 miles    
Events      
Averages and records for this station are not official NWS values.
T = Trace of Precipitation, MM = Missing Value Source: NWS Daily Summary

Daily Weather History Graph

Daily Weather History Graph

Search for Another Location

Airport or City:

Trip Planner

Search our weather history database for the weather conditions in past years. The results will help you decide how hot, cold, wet, or windy it might be!

Date:

Astronomy

Nov. 03, 2012 Rise Set
Actual Time 7:24 AM MDT 6:11 PM MDT
Civil Twilight 6:58 AM MDT 6:36 PM MDT
Nautical Twilight 6:29 AM MDT 7:05 PM MDT
Astronomical Twilight 6:00 AM MDT 7:34 PM MDT
Moon 9:59 PM MDT (11/3) 11:25 AM MDT (11/3)
Length of Visible Light 11h 37m
Length of Day
10h 46m
Waning Gibbous, 80% of the Moon is Illuminated
Nov 3
Waning Gibbous
Nov 6
Last Quarter
Nov 13
New
Nov 20
First Quarter
Nov 28
Full

Hourly Weather History & Observations

Time (MDT) Temp. Windchill Dew Point Humidity Pressure Visibility Wind Dir Wind Speed Gust Speed Precip Events Conditions
12:55 AM 50.7 °F - 16.5 °F 26% 29.84 in 10.0 mi Calm Calm - N/A   Mostly Cloudy
1:55 AM 52.0 °F - 17.4 °F 26% 29.83 in 10.0 mi Calm Calm - N/A   Clear
2:55 AM 47.8 °F - 18.9 °F 32% 29.87 in 10.0 mi Calm Calm - N/A   Clear
3:55 AM 48.2 °F - 18.3 °F 31% 29.86 in 10.0 mi ENE 5.8 mph - N/A   Partly Cloudy
4:55 AM 49.1 °F - 18.5 °F 30% 29.88 in 10.0 mi Calm Calm - N/A   Overcast
5:55 AM 50.2 °F - 19.2 °F 29% 29.89 in 10.0 mi SE 6.9 mph - N/A   Partly Cloudy
6:55 AM 45.9 °F 43.6 °F 18.9 °F 34% 29.95 in 10.0 mi North 4.6 mph - N/A   Partly Cloudy
7:55 AM 43.3 °F - 18.1 °F 36% 30.00 in 10.0 mi Calm Calm - N/A   Scattered Clouds
8:55 AM 44.2 °F - 20.8 °F 39% 30.02 in 10.0 mi Calm Calm - N/A   Partly Cloudy
9:55 AM 53.6 °F - 21.4 °F 28% 30.02 in 10.0 mi NE 3.5 mph - N/A   Clear
10:55 AM 63.0 °F - 23.5 °F 22% 30.00 in 10.0 mi Calm Calm - N/A   Partly Cloudy
11:55 AM 65.3 °F - 23.5 °F 20% 30.01 in 10.0 mi West 4.6 mph - N/A   Partly Cloudy
12:55 PM 72.0 °F - 26.1 °F 18% 29.96 in 10.0 mi WSW 8.1 mph - N/A   Clear
1:55 PM 73.8 °F - 26.8 °F 17% 29.92 in 10.0 mi WSW 9.2 mph - N/A   Clear
2:55 PM 75.2 °F - 26.6 °F 17% 29.91 in 10.0 mi Calm Calm - N/A   Clear
3:55 PM 74.7 °F - 26.1 °F 16% 29.91 in 10.0 mi Calm Calm - N/A   Partly Cloudy
4:55 PM 75.2 °F - 27.9 °F 17% 29.90 in 10.0 mi Calm Calm - N/A   Mostly Cloudy
5:55 PM 73.8 °F - 28.2 °F 19% 29.90 in 10.0 mi Calm Calm - N/A   Mostly Cloudy
6:55 PM 64.6 °F - 24.1 °F 21% 29.96 in 10.0 mi NNE 3.5 mph - N/A   Clear
7:55 PM 59.7 °F - 23.2 °F 25% 30.00 in 10.0 mi ENE 3.5 mph - N/A   Clear
8:55 PM 55.8 °F - 22.5 °F 28% 30.02 in 10.0 mi Calm Calm - N/A   Clear
9:55 PM 52.7 °F - 22.6 °F 31% 30.01 in 10.0 mi Calm Calm - N/A   Clear
10:55 PM 51.8 °F - 21.6 °F 31% 30.00 in 10.0 mi Calm Calm - N/A   Clear
11:55 PM 49.1 °F - 23.7 °F 37% 30.01 in 10.0 mi Calm Calm - N/A   Clear